{"data":{"norad_id":58534,"intl_designator":"2023-192D","name":"STARLINK-30936","alt_names":[],"object_type":"PAYLOAD","status":"ACTIVE","operator":null,"country":"US","launch_date":"2023-12-08","launch_site_code":"AFWTR","launch_vehicle":null,"mission":null,"orbit_class":"UNKNOWN","rcs_meters":null,"size_class":null,"mass_kg":null,"dimensions":null,"purposes":["comms"],"wikipedia_slug":null,"has_3d_model":false,"image_url":null,"decayed_at":null,"tle_current":{"epoch":"2026-05-25T03:25:28.020288Z","epoch_age_seconds":69694,"freshness":"FRESH","line1":"1 58534U 23192D   26145.14268542  .00006584  00000+0  22393-3 0  9996","line2":"2 58534  53.1606  57.4994 0001349 105.2319 254.8831 15.31674278137831","mean_motion":15.31674278,"eccentricity":0.0001349,"inclination_deg":53.1606,"raan_deg":57.4994,"arg_perigee_deg":105.2319,"mean_anomaly_deg":254.8831,"bstar":0.00022393,"rev_number":13783,"period_min":94.014766761005,"perigee_km":469.89274839184,"apogee_km":471.74059609261,"semimajor_km":6848.9536722422,"source":"CELESTRAK","updated_at":"2026-05-25T13:38:18.660732Z"}}}